This is the latest recevied weather packets stored in our database for station/object DB0FN-10. If no packets are shown the sender has not sent any weather packets the latest 10 day(s).
| Time | Temp. | Humidity | Pressure | Rain* | Wind** | Luminosity | Snow |
|---|---|---|---|---|---|---|---|
| 1787977947 | 22.22° C | 60% | 1022.3 hPa | - | - | - | - |
| 1787977047 | 22.22° C | 61% | 1022.2 hPa | - | - | - | - |
| 1787976147 | 22.22° C | 61% | 1022.4 hPa | - | - | - | - |
| 1787975246 | 22.22° C | 60% | 1022.3 hPa | - | - | - | - |
| 1787974346 | 22.22° C | 59% | 1022.4 hPa | - | - | - | - |
| 1787973446 | 22.22° C | 61% | 1022.4 hPa | - | - | - | - |
| 1787972546 | 22.22° C | 61% | 1022.3 hPa | - | - | - | - |
| 1787971646 | 22.22° C | 62% | 1022.3 hPa | - | - | - | - |
| 1787970746 | 22.22° C | 61% | 1022.3 hPa | - | - | - | - |
| 1787969846 | 22.22° C | 62% | 1022.3 hPa | - | - | - | - |
| 1787968946 | 22.22° C | 61% | 1022.3 hPa | - | - | - | - |
| 1787968046 | 22.78° C | 61% | 1022.4 hPa | - | - | - | - |
| 1787967146 | 22.78° C | 60% | 1022.5 hPa | - | - | - | - |
| 1787966246 | 22.22° C | 59% | 1022.6 hPa | - | - | - | - |
| 1787965346 | 22.22° C | 60% | 1022.7 hPa | - | - | - | - |
| 1787964446 | 22.78° C | 63% | 1022.8 hPa | - | - | - | - |
| 1787963546 | 22.22° C | 63% | 1022.6 hPa | - | - | - | - |
| 1787962645 | 22.78° C | 61% | 1022.6 hPa | - | - | - | - |
| 1787961745 | 22.78° C | 61% | 1022.8 hPa | - | - | - | - |
| 1787960845 | 22.78° C | 61% | 1022.8 hPa | - | - | - | - |
| 1787959945 | 22.22° C | 65% | 1022.9 hPa | - | - | - | - |
| 1787959045 | 22.78° C | 64% | 1022.9 hPa | - | - | - | - |
| 1787958145 | 22.78° C | 63% | 1022.9 hPa | - | - | - | - |
| 1787957245 | 22.78° C | 63% | 1022.8 hPa | - | - | - | - |
| 1787956345 | 22.22° C | 67% | 1022.9 hPa | - | - | - | - |
* Rain since midnight (hover to see other rain measurements)
** Current wind speed in m/s (hover to see current wind gust speed)